Simultaneous Nadir Overpasses (SNOs) Predictions

Prediction of SNOs between GOES-14 and AQUA Satellite Orbit:

Table of predicted SNOs for the next 14.0 days since TLE Epoch: 10/4/2019
Index Date Time (GOES-14) GOES-14 Lat,Lon AQUA Lat,Lon Distance(km) Time Diff (sec)
1 10/05/2019 08:41:40 0.26,-104.23 0.66,-106.13 216.18 80
2 10/07/2019 08:26:49 0.26,-104.22 0.03,-103.18 118.90 80
3 10/07/2019 20:48:14 -0.24,-104.20 -1.12,-108.38 474.85 80
4 10/09/2019 08:14:38 0.26,-104.22 -0.61,-100.23 454.39 80
5 10/09/2019 20:36:03 -0.24,-104.20 -0.48,-105.43 138.68 80
6 10/11/2019 20:26:31 -0.24,-104.21 0.11,-102.46 197.67 80
7 10/12/2019 08:47:47 0.22,-104.25 0.94,-107.63 384.11 80
8 10/14/2019 08:35:36 0.22,-104.25 0.30,-104.68 48.05 80
9 10/16/2019 08:20:44 0.23,-104.25 -0.29,-101.71 287.83 80
10 10/16/2019 20:42:09 -0.21,-104.19 -0.77,-106.91 309.50 80
11 10/18/2019 20:32:37 -0.21,-104.19 -0.18,-103.95 26.54 80




NCC Satellite Simultaneous Nadir Overpasses (SNOs) Prediction Service
